Location: Angel
(38.7209°N, 82.2693°W)
Time: 06:26:50
(UTC+00:00)

ISS - Visible Passes

Search period start: 02 December 2022 00:00
Search period end: 12 December 2022 00:00
Orbit: 415 x 420 km, 51.6° (Epoch: 01 December)

Date Brightness Start Highest point End Pass type
(mag) Time Alt. Az. Time Alt. Az. Time Alt. Az.
02 Dec -2.0 23:53:24 10° NW 23:55:01 22° NNW 23:55:01 22° NNW visible
03 Dec -2.3 23:05:35 10° NNW 23:08:17 22° NNE 23:09:20 19° NE visible
04 Dec -0.6 00:41:58 10° WNW 00:42:18 12° WNW 00:42:18 12° WNW visible
04 Dec -3.6 23:53:53 10° NW 23:56:51 68° NW 23:56:51 68° NW visible
05 Dec -3.5 23:05:56 10° NW 23:09:12 49° NE 23:11:42 16° ESE visible
06 Dec -0.6 00:43:31 10° W 00:44:42 15° WSW 00:44:42 15° WSW visible
06 Dec -1.8 23:54:55 10° WNW 23:57:51 29° SW 00:00:00 15° S visible
07 Dec -2.9 23:06:41 10° WNW 23:09:57 53° SW 23:13:12 10° SE visible
09 Dec -0.6 23:08:16 10° W 23:10:31 17° SW 23:12:45 10° S visible
